AB2HM Weather Reports


time (UTC)temp
F
wind
direction
speed
knots
gust
knots
rain 1hr
in
rain 24hr
in
rain mn
in
humidity
%
barometer
mb
20260510214235 70 358 0.0 0.0 0.00 0.00 0.00 71 1014.4
20260510211234 74 358 0.0 0.0 0.00 0.00 0.00 60 1013.8
20260510204233 76 358 0.0 0.0 0.00 0.00 0.00 56 1013.2
20260510201210 75 358 0.0 0.0 0.00 0.00 0.00 59 1013.2
20260510194146 74 358 0.0 0.0 0.00 0.00 0.00 59 1013.7
20260510191146 76 358 0.0 0.0 0.00 0.00 0.00 55 1013.8
20260510184136 80 358 0.0 2.6 0.00 0.00 0.00 41 1013.7
20260510181123 82 32 0.0 2.6 0.00 0.00 0.00 38 1013.7
20260510174116 82 165 0.0 0.9 0.00 0.00 0.00 39 1013.9
20260510171108 80 165 0.0 0.0 0.00 0.00 0.00 42 1013.8
20260510164059 78 165 0.0 0.0 0.00 0.00 0.00 46 1014.0
20260510161053 77 165 0.0 0.0 0.00 0.00 0.00 49 1014.0
20260510154043 75 165 0.0 0.0 0.00 0.00 0.00 53 1014.1
20260510151036 74 165 0.0 0.0 0.00 0.00 0.00 59 1014.2
20260510144031 71 165 0.0 0.0 0.00 0.00 0.00 66 1014.4
20260510141020 67 165 0.0 0.0 0.00 0.00 0.00 75 1014.4
20260510134010 63 165 0.0 0.0 0.00 0.00 0.00 85 1014.2
20260510131012 59 165 0.0 0.0 0.00 0.00 0.00 91 1014.6
20260510124009 58 165 0.0 0.0 0.00 0.00 0.00 93 1014.4
20260510121007 57 165 0.0 0.0 0.00 0.00 0.00 94 1014.1
20260510114005 56 165 0.0 0.0 0.00 0.00 0.00 94 1014.1
20260510111001 55 165 0.0 0.0 0.00 0.00 0.00 95 1013.5
20260510103959 55 165 0.0 0.0 0.00 0.00 0.00 95 1013.2
20260510100954 55 165 0.0 0.0 0.00 0.00 0.00 95 1013.0
20260510093934 54 165 0.0 0.0 0.00 0.00 0.00 95 1012.8
20260510090936 52 165 0.0 0.0 0.00 0.00 0.00 95 1012.4
20260510083932 51 165 0.0 0.0 0.00 0.00 0.00 94 1012.2
20260510080914 51 165 0.0 0.0 0.00 0.00 0.00 94 1012.2
20260510073909 51 165 0.0 0.0 0.00 0.00 0.00 94 1011.9
20260510070906 51 165 0.0 0.0 0.00 0.00 0.00 93 1011.3
20260510065356 52 165 0.0 0.0 0.00 0.00 0.00 93 1011.4
20260510063855 52 165 0.0 0.0 0.00 0.00 0.00 93 1011.4
20260510060849 52 165 0.0 0.0 0.00 0.00 0.00 93 1011.7
20260510053842 53 165 0.0 0.0 0.00 0.00 0.00 92 1011.8
20260510050840 53 165 0.0 0.0 0.00 0.00 0.00 92 1012.0
20260510043835 53 165 0.0 0.0 0.00 0.00 0.00 91 1012.1
20260510040833 53 165 0.0 0.0 0.00 0.00 0.00 90 1012.2
20260510033831 54 165 0.0 0.0 0.00 0.00 0.00 89 1012.1
20260510030825 56 165 0.0 0.0 0.00 0.00 0.00 87 1011.7
20260510023818 56 165 0.0 0.0 0.00 0.00 0.00 86 1011.6
20260510020821 57 165 0.0 0.0 0.00 0.00 0.00 86 1011.5
20260510013812 57 165 0.0 0.0 0.00 0.00 0.00 85 1011.5
20260510010757 58 165 0.0 0.0 0.00 0.00 0.00 82 1011.3
20260510003755 59 165 0.0 0.0 0.00 0.00 0.00 80 1011.2
20260510000751 61 165 0.0 0.0 0.00 0.00 0.00 76 1011.3
20260509233749 62 165 0.0 0.0 0.00 0.00 0.00 74 1011.2
20260509230747 63 165 0.0 0.0 0.00 0.00 0.00 73 1010.9
20260509223742 64 165 0.0 0.0 0.00 0.00 0.00 71 1011.1
20260509220740 64 165 0.0 0.0 0.00 0.00 0.00 70 1011.1